[[{"header":{"parameterUnit":"m.s-1","parameterCategory":1,"la1":30.2991,"la2":30.254,"lo1":-89.0895,"lo2":-89.0444,"dy":0.0017,"dx":0.0017,"nx":28,"ny":28,"refTime":"2023-10-16T03:00:00:Z","depth":0,"parameterNumber":2,"parameterNumberName":"U-component_of_WINDS"},"data":[0,0,0,0,0,0,0,0,0,0,0,0,0,0,0,0,0,0,0,0,0,0,0,0,0,0,0,0,0,0,0,0,0,0,0,0,0,0,0,0,0,0,0,0,0,0,0,0,0,0,0,0,0,0,0,0,0,0,-0.1231,-0.123,0,-0.1199,-0.1199,-0.1198,-0.1145,-0.1144,-0.1143,-0.1142,-0.111,-0.111,-0.111,0,0,0,0,0,0,0,0,0,0,0,0,0,-0.1246,-0.1246,-0.1231,-0.123,-0.123,-0.1199,-0.1199,-0.1198,-0.1145,-0.1144,-0.1142,-0.1141,-0.111,-0.111,-0.111,0,0,0,0,0,0,0,0,0,0,0,0,0,-0.123,-0.1246,-0.1231,-0.12,-0.1197,-0.1199,-0.1199,-0.1198,-0.1145,-0.1144,-0.1142,-0.1141,-0.111,-0.111,-0.111,-0.114,0,0,-0.111,-0.111,0,0,0,0,0,0,0,0,-0.1231,-0.1229,-0.1205,-0.1202,-0.1198,-0.1174,-0.1192,-0.1179,-0.1145,-0.1165,-0.1142,-0.114,-0.1132,-0.113,-0.1128,-0.1139,-0.1137,-0.111,-0.111,-0.111,-0.111,0,0,0,0,0,0,0,-0.1232,-0.123,-0.1218,-0.1204,-0.1201,-0.1188,-0.1183,-0.1189,-0.1157,-0.1163,-0.1159,-0.1156,-0.113,-0.1128,-0.1127,-0.1137,-0.111,-0.111,-0.111,-0.111,-0.1172,-0.1173,0,0,0,0,0,0,-0.1237,-0.1231,-0.1219,-0.1217,-0.1211,-0.1188,-0.1184,-0.1184,-0.1157,-0.1152,-0.1157,-0.1153,-0.1128,-0.1127,-0.1125,-0.116,-0.111,-0.111,-0.111,-0.117,-0.1172,-0.1174,0,0,0,0,0,0,-0.1238,-0.1237,-0.122,-0.1223,-0.122,-0.119,-0.119,-0.1184,-0.1181,-0.1153,-0.1147,-0.116,-0.1127,-0.1125,-0.1137,-0.1158,-0.111,-0.111,-0.1168,-0.1171,-0.1173,-0.1229,0,0,0,0,0,0,-0.1239,-0.1237,-0.1248,-0.1224,-0.122,-0.1233,-0.1191,-0.1184,-0.1181,-0.1176,-0.1154,-0.1149,-0.1126,-0.1137,-0.1137,-0.1157,-0.1111,-0.1166,-0.117,-0.1172,-0.1225,-0.1232,-0.1239,0,0,0,0,0,-0.1239,-0.1265,-0.1249,-0.1248,-0.1233,-0.1234,-0.1232,-0.1204,-0.1183,-0.1194,-0.1176,-0.115,-0.1156,-0.1139,-0.1138,-0.1159,-0.1165,-0.1169,-0.1172,-0.1221,-0.1231,-0.1239,0,0,0,0,0,0,-0.1293,-0.1262,-0.1243,-0.1262,-0.1251,-0.1225,-0.1238,-0.1215,-0.121,-0.1206,-0.1172,-0.1167,-0.1184,-0.1172,-0.1154,-0.1187,-0.1156,-0.116,-0.1194,-0.1203,-0.121,-0.1212,-0.1111,0,0,0,0,0,-0.1307,-0.131,-0.1282,-0.1302,-0.1297,-0.1269,-0.1268,-0.1248,-0.1235,-0.123,-0.1213,-0.1202,-0.1201,-0.1201,-0.1199,-0.1223,-0.1217,-0.1236,-0.1244,-0.125,-0.1253,-0.1266,-0.1274,-0.1185,-0.1185,-0.1185,0,0,-0.1337,-0.132,-0.1323,-0.1312,-0.1301,-0.1305,-0.1265,-0.1271,-0.1274,-0.1231,-0.1241,-0.1228,-0.1214,-0.1232,-0.1239,-0.1223,-0.1277,-0.1254,-0.1259,-0.1259,-0.127,-0.1278,-0.1286,-0.1188,-0.1187,-0.1187,0,0,-0.1392,-0.1379,-0.1394,-0.1384,-0.1368,-0.1349,-0.1353,-0.133,-0.1319,-0.1329,-0.1297,-0.13,-0.1299,-0.129,-0.1286,-0.1338,-0.1314,-0.1338,-0.1376,-0.1388,-0.1395,-0.1401,-0.142,-0.1428,-0.1342,-0.1342,-0.1342,0,-0.143,-0.1435,-0.1404,-0.1412,-0.1409,-0.137,-0.1385,-0.1377,-0.1361,-0.1359,-0.1341,-0.134,-0.1327,-0.1343,-0.1356,-0.1353,-0.1357,-0.1341,-0.1397,-0.1402,-0.1408,-0.1425,-0.1433,-0.1345,-0.1345,-0.1344,-0.1344,0,-0.1483,-0.1486,-0.15,-0.1486,-0.1484,-0.1495,-0.1467,-0.1469,-0.1449,-0.1432,-0.1442,-0.1426,-0.142,-0.1422,-0.1402,-0.1435,-0.1426,-0.1403,-0.1371,-0.142,-0.1436,-0.1442,-0.135,-0.1348,-0.1348,-0.1347,0,0,-0.1571,-0.154,-0.1546,-0.1539,-0.1518,-0.1521,-0.1531,-0.1525,-0.1527,-0.1517,-0.1525,-0.1526,-0.1504,-0.1499,-0.1478,-0.1489,-0.1532,-0.1465,-0.1464,-0.1478,-0.1568,-0.1585,-0.1594,-0.1516,-0.1517,-0.1518,-0.1569,0,-0.1622,-0.1637,-0.161,-0.1632,-0.1635,-0.1599,-0.1607,-0.1596,-0.1581,-0.1581,-0.1564,-0.1565,-0.1537,-0.1534,-0.1543,-0.1525,-0.155,-0.1521,-0.1523,-0.1524,-0.1528,-0.1602,-0.1621,-0.1669,-0.1575,-0.1576,-0.1577,0,-0.1683,-0.1677,-0.1699,-0.1678,-0.1678,-0.1686,-0.1679,-0.168,-0.1667,-0.1655,-0.1649,-0.1625,-0.1633,-0.1603,-0.1614,-0.1596,-0.1595,-0.1586,-0.1588,-0.1587,-0.1554,-0.1604,-0.1684,-0.1692,-0.1587,-0.1586,-0.1585,0,-0.1746,-0.1743,-0.1756,-0.1751,-0.1726,-0.1733,-0.1723,-0.1708,-0.1707,-0.17,-0.1699,-0.1694,-0.1691,-0.1687,-0.1662,-0.1642,-0.1677,-0.1645,-0.1668,-0.1669,-0.1677,-0.1677,-0.1759,-0.1676,-0.1676,-0.1676,-0.1676,0,-0.1806,-0.1821,-0.1783,-0.1791,-0.1807,-0.1777,-0.1793,-0.1779,-0.1767,-0.1772,-0.174,-0.1745,-0.1712,-0.1713,-0.1694,-0.1707,-0.1706,-0.1696,-0.1691,-0.1699,-0.1701,-0.1699,-0.1695,-0.1678,-0.1678,-0.1677,-0.1677,0,-0.1879,-0.1854,-0.1866,-0.1841,-0.1836,-0.1849,-0.1828,-0.1834,-0.1817,-0.1824,-0.1823,-0.1796,-0.1797,-0.1771,-0.1767,-0.1754,-0.1775,-0.1763,-0.178,-0.1776,-0.1801,-0.1799,-0.1885,-0.1895,-0.1806,-0.1807,-0.1808,0,-0.1918,-0.1929,-0.1906,-0.1907,-0.1899,-0.1901,-0.1899,-0.1869,-0.1869,-0.1855,-0.1863,-0.1861,-0.1858,-0.186,-0.184,-0.1837,-0.1825,-0.1855,-0.1824,-0.1832,-0.1826,-0.1825,-0.1827,-0.1862,-0.1863,-0.1864,-0.1864,0,-0.1992,-0.198,-0.1978,-0.1972,-0.1971,-0.1965,-0.1957,-0.196,-0.1928,-0.1929,-0.1929,-0.1926,-0.1922,-0.192,-0.1913,-0.1903,-0.1879,-0.1874,-0.188,-0.1888,-0.1898,-0.1893,-0.1798,-0.1873,-0.1872,-0.1871,-0.1871,-0.187,-0.205,-0.2058,-0.2043,-0.2042,-0.2033,-0.2027,-0.2032,-0.2015,-0.2015,-0.2009,-0.1991,-0.1994,-0.1981,-0.1969,-0.1961,-0.1963,-0.1948,-0.1956,-0.1958,-0.196,-0.1965,-0.1897,-0.1962,-0.1962,-0.1961,-0.1961,-0.1961,0,-0.2122,-0.2111,-0.2111,-0.2101,-0.21,-0.2077,-0.2068,-0.2069,-0.2072,-0.2062,-0.2059,-0.206,-0.2058,-0.2038,-0.2035,-0.204,-0.2029,-0.204,-0.204,-0.2038,-0.1979,-0.1975,-0.2049,-0.2049,-0.2049,-0.2049,-0.2049,-0.2049,-0.216,-0.2172,-0.2158,-0.2166,-0.2154,-0.2157,-0.2153,-0.2147,-0.2139,-0.2141,-0.214,-0.2127,-0.2113,-0.2108,-0.2105,-0.2099,-0.21,-0.2115,-0.2105,-0.2051,-0.2042,-0.2034,-0.203,-0.2115,-0.2115,-0.2164,-0.2165,-0.2165]},{"header":{"parameterUnit":"m.s-1","parameterCategory":1,"la1":30.2991,"la2":30.254,"lo1":-89.0895,"lo2":-89.0444,"dy":0.0017,"dx":0.0017,"nx":28,"ny":28,"refTime":"2023-10-16T03:00:00:Z","depth":0,"parameterNumber":3,"parameterNumberName":"V-component_of_WINDS"},"data":[0,0,0,0,0,0,0,0,0,0,0,0,0,0,0,0,0,0,0,0,0,0,0,0,0,0,0,0,0,0,0,0,0,0,0,0,0,0,0,0,0,0,0,0,0,0,0,0,0,0,0,0,0,0,0,0,0,0,0.4492,0.4491,0,0.4446,0.4446,0.4445,0.4451,0.4452,0.4452,0.4453,0.4404,0.4402,0.44,0,0,0,0,0,0,0,0,0,0,0,0,0,0.4582,0.458,0.4492,0.4491,0.4491,0.4446,0.4446,0.4445,0.4451,0.4452,0.4452,0.4453,0.4405,0.4402,0.44,0,0,0,0,0,0,0,0,0,0,0,0,0,0.454,0.458,0.4492,0.4488,0.4487,0.4446,0.4446,0.4445,0.445,0.4452,0.4453,0.4454,0.4405,0.4402,0.4399,0.4358,0,0,0.439,0.4389,0,0,0,0,0,0,0,0,0.4542,0.4537,0.4489,0.4488,0.4487,0.4455,0.4459,0.4416,0.445,0.4464,0.4453,0.4454,0.442,0.4416,0.4405,0.4356,0.4354,0.439,0.4388,0.4387,0.4386,0,0,0,0,0,0,0,0.4545,0.4539,0.4474,0.4489,0.4487,0.4488,0.4483,0.4451,0.4436,0.4463,0.4464,0.4458,0.442,0.4408,0.4404,0.4353,0.439,0.4387,0.4386,0.4384,0.4267,0.4266,0,0,0,0,0,0,0.4549,0.4541,0.4475,0.4472,0.4518,0.4486,0.448,0.4464,0.4437,0.4434,0.4457,0.4459,0.4412,0.4407,0.4402,0.4351,0.4387,0.4384,0.4382,0.4269,0.4267,0.4266,0,0,0,0,0,0,0.4551,0.4544,0.4477,0.4507,0.4498,0.4483,0.4465,0.4463,0.4451,0.4432,0.4429,0.4448,0.4413,0.4406,0.4369,0.4349,0.4383,0.438,0.427,0.4268,0.4266,0.4249,0,0,0,0,0,0,0.4554,0.4544,0.4529,0.4506,0.4497,0.4445,0.4464,0.4461,0.4446,0.4447,0.4423,0.442,0.4413,0.4373,0.4366,0.4346,0.4378,0.4272,0.4269,0.4267,0.4251,0.4246,0.4243,0,0,0,0,0,0.4557,0.4525,0.4528,0.452,0.4477,0.4444,0.4439,0.4433,0.4444,0.4428,0.4416,0.442,0.4353,0.437,0.4361,0.434,0.4273,0.427,0.4267,0.4253,0.4247,0.4243,0,0,0,0,0,0,0.4545,0.4522,0.4525,0.4485,0.4467,0.4445,0.4425,0.4427,0.4404,0.4406,0.4399,0.4394,0.4356,0.4344,0.4363,0.4298,0.4315,0.431,0.4306,0.4301,0.4297,0.4299,0.4375,0,0,0,0,0,0.4538,0.4514,0.4495,0.4462,0.4453,0.444,0.4426,0.4423,0.4403,0.4395,0.438,0.436,0.4334,0.4317,0.4293,0.425,0.4244,0.4231,0.4227,0.4224,0.4219,0.4194,0.4188,0.4256,0.4256,0.4256,0,0,0.4523,0.4507,0.4492,0.4459,0.4444,0.4418,0.4434,0.4406,0.4386,0.439,0.4354,0.4343,0.432,0.428,0.4261,0.4269,0.4199,0.422,0.4217,0.4214,0.419,0.4184,0.4178,0.4254,0.4255,0.4255,0,0,0.4481,0.4468,0.4438,0.4423,0.4401,0.4393,0.4386,0.4364,0.4357,0.4321,0.4323,0.43,0.4256,0.4239,0.4225,0.4178,0.418,0.417,0.4147,0.4123,0.4117,0.4112,0.4094,0.4087,0.4166,0.4166,0.4166,0,0.4465,0.4426,0.4422,0.4394,0.4378,0.4383,0.4352,0.4337,0.4308,0.4297,0.4306,0.4251,0.4236,0.4191,0.4179,0.4168,0.4159,0.4172,0.4119,0.4114,0.4109,0.4091,0.4084,0.4165,0.4165,0.4165,0.4165,0,0.4406,0.4379,0.4358,0.433,0.4312,0.4283,0.4274,0.4257,0.4255,0.4246,0.4209,0.4192,0.4163,0.4153,0.4151,0.4107,0.4112,0.4121,0.4136,0.4101,0.4084,0.4077,0.4163,0.4163,0.4164,0.4164,0,0,0.4354,0.4325,0.4317,0.4303,0.428,0.4258,0.4229,0.4202,0.4186,0.4166,0.414,0.4103,0.4111,0.4094,0.4091,0.407,0.4032,0.4081,0.408,0.4071,0.398,0.3973,0.3965,0.4034,0.4033,0.4032,0.3982,0,0.4309,0.4257,0.4252,0.4205,0.418,0.4184,0.4158,0.414,0.4131,0.4107,0.4098,0.4071,0.4083,0.4073,0.4053,0.4041,0.4013,0.4045,0.4008,0.4007,0.4012,0.3956,0.3948,0.3902,0.3975,0.3974,0.3973,0,0.4248,0.4227,0.4177,0.4156,0.4145,0.4122,0.4096,0.4074,0.4054,0.4049,0.4031,0.4031,0.3999,0.4018,0.3974,0.3996,0.3981,0.3973,0.3971,0.3965,0.3986,0.3947,0.3887,0.3879,0.3963,0.3964,0.3965,0,0.4213,0.4172,0.4136,0.4125,0.41,0.4084,0.4072,0.4053,0.4037,0.4014,0.4003,0.3978,0.3963,0.3943,0.3935,0.395,0.3891,0.3909,0.3884,0.3884,0.3869,0.387,0.3803,0.3863,0.3864,0.3864,0.3864,0,0.4161,0.413,0.412,0.4098,0.4063,0.4058,0.4024,0.4013,0.3996,0.3972,0.3974,0.3951,0.3943,0.3918,0.3913,0.3876,0.387,0.3864,0.3862,0.3862,0.3862,0.385,0.3853,0.3862,0.3862,0.3863,0.3863,0,0.4115,0.4107,0.4068,0.4048,0.4042,0.4017,0.4,0.3978,0.397,0.3939,0.3931,0.3918,0.3889,0.388,0.3845,0.3841,0.3798,0.38,0.3804,0.3803,0.3778,0.3779,0.3699,0.3688,0.3758,0.3757,0.3756,0,0.4081,0.4057,0.4035,0.4019,0.4007,0.3981,0.3965,0.396,0.3942,0.3917,0.3898,0.387,0.3846,0.3799,0.3786,0.3759,0.3759,0.3733,0.3755,0.3756,0.3756,0.3757,0.3754,0.3728,0.3728,0.3727,0.3726,0,0.4022,0.4019,0.3995,0.397,0.395,0.393,0.3911,0.3897,0.3889,0.3869,0.384,0.3822,0.3786,0.3757,0.373,0.3717,0.372,0.372,0.3712,0.3711,0.3714,0.371,0.3791,0.3721,0.3722,0.3722,0.3722,0.3723,0.3979,0.3958,0.3938,0.3912,0.3897,0.3878,0.3857,0.3846,0.3822,0.3792,0.3791,0.3759,0.3739,0.3702,0.3689,0.3663,0.367,0.3659,0.3656,0.3653,0.365,0.372,0.3658,0.3658,0.3658,0.3658,0.3658,0,0.3918,0.3906,0.3881,0.3854,0.3833,0.3839,0.3818,0.3799,0.3771,0.3752,0.3729,0.3695,0.3667,0.3652,0.3624,0.3606,0.3606,0.3598,0.3598,0.3595,0.3646,0.3654,0.3599,0.3599,0.3599,0.3599,0.3599,0.3599,0.3883,0.3847,0.3842,0.3798,0.3786,0.3755,0.3742,0.3724,0.3709,0.3671,0.3648,0.3639,0.3621,0.3592,0.3566,0.3563,0.3551,0.3542,0.3539,0.3586,0.3592,0.3598,0.3605,0.354,0.354,0.349,0.349,0.3489]}]]